Regional Weather Roundup
Issued by NWS Albany, NY

Home | Current Version | Previous Version | Text Only | Print | Product List | Glossary On
Versions: 1 2 3 4 5 6 7 8 9 10 11 12 13 14 15 16 17 18 19 20 21 22 23 24 25 26 27 28
000
ASUS41 KALY 240310
RWRALY

NEW YORK STATE HOURLY WEATHER ROUNDUP
NATIONAL WEATHER SERVICE ALBANY NY
1100 PM EDT WED APR 23 2014

NOTE: "FAIR" INDICATES FEW OR NO CLOUDS BELOW 12,000 FEET WITH NO
SIGNIFICANT WEATHER AND/OR NO OBSTRUCTIONS TO VISIBILITY.

NYZ032-033-038>043-046>054-057>066-NYZ062>081-240400-
EAST


CITY           SKY/WX    TMP DP  RH WIND       PRES   REMARKS
ALBANY         MOCLDY    43  30  60 W15       29.80R
GLENS FALLS    PTCLDY    47  24  40 NW17G24   29.77R
POUGHKEEPSIE   CLOUDY    47  27  45 NW14G20   29.80R
NEWBURGH       MOCLDY    45  28  53 W14       29.82R
MONTGOMERY     CLOUDY    43  28  55 NW8       29.83R
WHITE PLAINS   MOCLDY    44  29  55 NW15G22   29.77R
ISLIP          MOCLDY    47  29  49 NW15G25   29.74R
NEW YORK CITY  MOCLDY    46  30  53 NW20G30   29.81R
CENTRAL PARK   MOCLDY    46  28  49 NW14G26   29.84S
$$

NYZ005>009-017-018-044>046-055-056-240400-
CENTRAL


CITY           SKY/WX    TMP DP  RH WIND       PRES   REMARKS
FULTON         CLEAR     38  27  64 NW10      29.92R WCI  31
SYRACUSE       MOCLDY    42  25  50 W15       29.91R
ROME           CLEAR     34  29  82 W9        29.89S WCI  27
ELMIRA         CLEAR     39  24  55 W9G16     29.95R WCI  33
BINGHAMTON     CLEAR     36  28  73 NW13G20   29.87S WCI  27
MONTICELLO     MOCLDY    37  28  70 W10G21    29.84R WCI  30
$$

NYZ026>034-041>043-240400-
NORTH


CITY           SKY/WX    TMP DP  RH WIND       PRES   REMARKS
WATERTOWN      CLEAR     31  26  82 CALM      29.91R
FORT DRUM      NOT AVBL
MASSENA        CLEAR     41  18  39 NW10      29.88R
SARANAC LAKE   CLOUDY    36  21  54 VRB5      29.78R WCI  32
PLATTSBURGH    CLOUDY    44  21  40 NW15G25   29.78R
$$

NYZ001>004-010>016-019>021-240400-
WEST


CITY           SKY/WX    TMP DP  RH WIND       PRES   REMARKS
NIAGARA FALLS  CLEAR     39  19  44 NW13      30.05R WCI  31
BUFFALO        CLEAR     40  17  39 NW10      30.04R WCI  33
DUNKIRK        CLEAR     31  28  89 CALM      30.07R
JAMESTOWN      CLEAR     36  25  64 NW7       30.03R WCI  30
WELLSVILLE     CLEAR     34  18  52 NW15G21   29.98R WCI  24
ROCHESTER      CLEAR     40  19  43 NW17G23   30.00R WCI  31
PENN YAN       CLEAR     39  19  44 W10G20    29.96R WCI  32
$$

             KEY
       WCI = WIND CHILL INDEX
       VSB = VISIBILITY
       HX  = HEAT INDEX
$$



USA.gov is the U.S. government's official web portal to all federal, state and local government web resources and services.